Location: Winthrop
(48.4780°N, 120.1850°W)
Time: 17:25:30
(UTC-07:00)

Explorer 7 - Pass Details

Date: 31 January 2023
Orbit: 478 x 657 km, 50.3° (Epoch: 30 March)

Event Time Altitude Azimuth Distance (km) Brightness Sun altitude
Rises 16:11:07 0° 279° (W) 2,820 11.2 5.9°
Reaches altitude 10° 16:13:22 10° 281° (WNW) 1,948 10.4 5.6°
Maximum altitude 16:17:51 72° 7° (N) 661 7.2 4.9°
Drops below altitude 10° 16:22:34 10° 92° (E) 2,043 9.2 4.3°
Sets 16:24:57 0° 94° (E) 2,970 10.1 3.9°
